FW7632 Weather Reports


Display with metric or nautical units.
time (UTC)temp
F
wind
direction
speed
MPH
gust
MPH
rain 1hr
in
rain 24hr
in
rain mn
in
humidity
%
barometer
mb
20260503203026 56 284 6.0 16.0 0.00 0.00 0.00 38 1009.7
20260503201522 56 319 9.0 23.0 0.00 0.00 0.00 36 1009.8
20260503200018 57 311 4.0 13.0 0.00 0.00 0.00 34 1009.6
20260503194513 57 296 8.0 14.0 0.00 0.00 0.00 33 1009.8
20260503193008 58 360 4.0 14.0 0.00 0.00 0.00 32 1010.0
20260503191504 59 269 9.0 15.0 0.00 0.00 0.00 30 1010.0
20260503190110 58 269 6.0 15.0 0.00 0.00 0.00 30 1010.2
20260503184556 59 265 5.0 13.0 0.00 0.00 0.00 30 1010.3
20260503183100 58 270 6.0 17.0 0.00 0.00 0.00 30 1010.5
20260503181545 59 274 5.0 13.0 0.00 0.00 0.00 30 1010.7
20260503180053 58 316 4.0 14.0 0.00 0.00 0.00 31 1010.8
20260503174537 57 313 5.0 12.0 0.00 0.00 0.00 32 1011.2
20260503173034 56 217 6.0 17.0 0.00 0.00 0.00 34 1011.5
20260503171538 54 285 6.0 20.0 0.00 0.00 0.00 35 1011.6
20260503081550 38 271 2.0 3.0 0.00 0.01 0.00 1 1012.1
20260503071533 39 259 1.0 6.0 0.00 0.01 0.00 1 1012.0
20260503054506 40 300 2.0 4.0 0.00 0.01 0.00 11 1012.4
20260503053101 40 300 1.0 5.0 0.00 0.01 0.00 16 1012.5
20260503051600 40 300 0.0 5.0 0.00 0.02 0.00 21 1012.7
20260503050054 40 296 1.0 3.0 0.00 0.02 0.00 24 1012.9
20260503044551 41 311 2.0 5.0 0.00 0.02 0.00 28 1013.1
20260503043051 41 311 1.0 3.0 0.00 0.02 0.00 34 1013.2
20260503041546 41 311 1.0 5.0 0.00 0.03 0.02 39 1013.3
20260503040040 41 319 1.0 4.0 0.00 0.03 0.02 43 1013.3
20260503034536 41 319 1.0 6.0 0.00 0.03 0.02 45 1013.2
20260503033041 42 309 3.0 6.0 0.00 0.03 0.02 46 1013.3
20260503031527 42 296 3.0 7.0 0.00 0.04 0.02 47 1013.2
20260503030022 42 327 1.0 3.0 0.00 0.04 0.02 50 1013.2
20260503024520 42 333 2.0 4.0 0.00 0.04 0.02 51 1013.3
20260503023013 43 325 1.0 5.0 0.00 0.04 0.02 51 1013.3
20260503021508 43 329 2.0 5.0 0.00 0.08 0.02 52 1013.3
20260503020007 43 49 5.0 11.0 0.00 0.08 0.02 52 1013.4
20260503014625 43 343 4.0 8.0 0.00 0.08 0.02 52 1013.3
20260503013056 44 355 4.0 8.0 0.00 0.08 0.02 53 1013.3
20260503011604 44 334 4.0 8.0 0.00 0.10 0.02 53 1013.1
20260503010053 44 345 2.0 6.0 0.00 0.10 0.02 53 1012.9
20260503004556 44 331 2.0 5.0 0.00 0.10 0.02 52 1012.8
20260503003038 45 333 3.0 6.0 0.00 0.10 0.02 51 1012.6
20260503001534 45 349 5.0 10.0 0.00 0.14 0.02 51 1012.5
20260503000029 46 342 5.0 11.0 0.00 0.14 0.02 50 1012.5
20260502234526 46 351 3.0 6.0 0.00 0.14 0.02 49 1012.4
20260502233020 46 317 3.0 11.0 0.00 0.14 0.02 50 1012.2
20260502231519 47 337 1.0 5.0 0.00 0.16 0.02 49 1012.0
20260502230017 47 315 1.0 4.0 0.00 0.16 0.02 50 1012.0
20260502224511 47 26 1.0 3.0 0.00 0.16 0.02 50 1012.0
20260502223006 47 346 2.0 6.0 0.00 0.16 0.02 51 1012.0
20260502221501 47 360 4.0 10.0 0.00 0.16 0.02 51 1012.0
20260502220104 47 340 4.0 10.0 0.00 0.16 0.02 50 1012.0
20260502214553 48 317 3.0 11.0 0.00 0.16 0.02 49 1011.9
20260502213055 48 296 4.0 7.0 0.00 0.16 0.02 48 1011.8
20260502211558 48 322 3.0 10.0 0.00 0.16 0.02 48 1011.7
20260502210041 48 314 2.0 9.0 0.00 0.16 0.02 47 1011.7
20260502204536 49 348 5.0 12.0 0.00 0.16 0.02 46 1011.7